Zurück zum Katalog

STARLINK-30066

AktivKommunikationVLEO
NORAD 56704·PAYLOAD·🇺🇸 United States

Gestartet May 19, 2023 von Cape Canaveral Space Force Station

Loading…

Nächste Überflüge (nächste 24 Stunden)

TLE

AktuellSource: CelesTrak SupGP

Epoche: Sep 14, 2026, 21:02 UTC

1 56704C 23067S   26257.87687500  .00003967  00000+0  14368-3 0  2579
2 56704  43.0028 282.4300 0001725 273.0357 169.3313 15.27579071    13

Verfolge STARLINK-30066 in Echtzeit mit AllMySat

Download on the App Store